Time,TemperatureF,DewpointF,PressureIn,WindDirection,WindDirectionDegrees,WindSpeedMPH,WindSpeedGustMPH,Humidity,HourlyPrecipIn,Conditions,Clouds,dailyrainin,SoftwareType,DateUTC
2013-03-28 00:02:00,42.0,35.0,-100.00,SE,124,6.0,9.0,77,0.00,,,-99.99,,2013-03-28 06:02:00,
2013-03-28 00:12:00,41.0,35.0,-100.00,SE,131,6.0,9.0,78,0.00,,,-99.99,,2013-03-28 06:12:00,
2013-03-28 00:22:00,41.0,34.0,-100.00,SE,137,9.0,11.0,78,0.00,,,-99.99,,2013-03-28 06:22:00,
2013-03-28 00:32:00,41.0,34.0,-100.00,SE,137,9.0,11.0,78,0.00,,,-99.99,,2013-03-28 06:32:00,
2013-03-28 00:42:00,41.0,35.0,-100.00,ESE,121,8.0,11.0,77,0.00,,,-99.99,,2013-03-28 06:42:00,
2013-03-28 00:52:00,41.0,35.0,-100.00,SE,126,7.0,9.0,77,0.00,,,-99.99,,2013-03-28 06:52:00,
2013-03-28 01:01:00,41.0,35.0,-100.00,SE,126,7.0,9.0,77,0.00,,,-99.99,,2013-03-28 07:01:00,
2013-03-28 01:12:00,41.0,35.0,-100.00,ESE,121,7.0,9.0,77,0.00,,,-99.99,,2013-03-28 07:12:00,
2013-03-28 01:22:00,41.0,34.0,-100.00,SE,124,5.0,7.0,76,0.00,,,-99.99,,2013-03-28 07:22:00,
2013-03-28 01:32:00,41.0,34.0,-100.00,SE,124,5.0,7.0,76,0.00,,,-99.99,,2013-03-28 07:32:00,
2013-03-28 01:42:00,40.0,34.0,-100.00,SE,131,8.0,10.0,78,0.00,,,-99.99,,2013-03-28 07:42:00,
2013-03-28 01:52:00,39.0,34.0,-100.00,SE,127,7.0,10.0,80,0.00,,,-99.99,,2013-03-28 07:52:00,
2013-03-28 02:02:00,39.0,34.0,-100.00,SE,127,7.0,10.0,80,0.00,,,-99.99,,2013-03-28 08:02:00,
2013-03-28 02:11:00,39.0,33.0,-100.00,ESE,102,4.0,8.0,82,0.00,,,-99.99,,2013-03-28 08:11:00,
2013-03-28 02:21:00,39.0,34.0,-100.00,ESE,116,7.0,10.0,81,0.00,,,-99.99,,2013-03-28 08:21:00,
2013-03-28 02:32:00,39.0,34.0,-100.00,ESE,116,7.0,10.0,81,0.00,,,-99.99,,2013-03-28 08:32:00,
2013-03-28 02:42:00,37.0,33.0,-100.00,ENE,75,5.0,6.0,83,0.00,,,-99.99,,2013-03-28 08:42:00,
2013-03-28 02:52:00,38.0,35.0,-100.00,NE,35,3.0,4.0,87,0.00,,,-99.99,,2013-03-28 08:52:00,
2013-03-28 03:01:00,38.0,35.0,-100.00,NE,35,3.0,4.0,87,0.00,,,-99.99,,2013-03-28 09:01:00,
2013-03-28 03:11:00,38.0,35.0,-100.00,ENE,76,0.0,0.0,89,0.00,,,-99.99,,2013-03-28 09:11:00,
2013-03-28 03:22:00,37.0,35.0,-100.00,ESE,104,1.0,2.0,92,0.00,,,-99.99,,2013-03-28 09:22:00,
2013-03-28 03:32:00,37.0,35.0,-100.00,ESE,104,1.0,2.0,92,0.00,,,-99.99,,2013-03-28 09:32:00,
2013-03-28 03:42:00,35.0,33.0,-100.00,ESE,103,0.0,1.0,93,0.00,,,-99.99,,2013-03-28 09:42:00,
2013-03-28 03:52:00,37.0,35.0,-100.00,SSE,158,3.0,4.0,94,0.00,,,-99.99,,2013-03-28 09:52:00,
2013-03-28 04:02:00,37.0,35.0,-100.00,SSE,158,3.0,4.0,94,0.00,,,-99.99,,2013-03-28 10:02:00,
2013-03-28 04:12:00,36.0,34.0,-100.00,SE,133,3.0,4.0,91,0.00,,,-99.99,,2013-03-28 10:12:00,
2013-03-28 04:22:00,36.0,34.0,-100.00,WSW,240,2.0,3.0,93,0.00,,,-99.99,,2013-03-28 10:22:00,
2013-03-28 04:32:00,36.0,34.0,-100.00,WSW,240,2.0,3.0,93,0.00,,,-99.99,,2013-03-28 10:32:00,
2013-03-28 04:42:00,35.0,33.0,-100.00,WNW,282,2.0,3.0,94,0.00,,,-99.99,,2013-03-28 10:42:00,
2013-03-28 04:53:00,34.0,33.0,-100.00,WNW,301,5.0,6.0,94,0.00,,,-99.99,,2013-03-28 10:53:00,
2013-03-28 05:02:00,34.0,33.0,-100.00,WNW,301,5.0,6.0,94,0.00,,,-99.99,,2013-03-28 11:02:00,
2013-03-28 05:12:00,34.0,33.0,-100.00,NW,313,6.0,7.0,96,0.00,,,-99.99,,2013-03-28 11:12:00,
2013-03-28 05:22:00,34.0,33.0,-100.00,NNW,335,3.0,4.0,95,0.00,,,-99.99,,2013-03-28 11:22:00,
2013-03-28 05:32:00,34.0,33.0,-100.00,NNW,335,3.0,4.0,95,0.00,,,-99.99,,2013-03-28 11:32:00,
2013-03-28 05:42:00,34.0,33.0,-100.00,ENE,73,1.0,2.0,96,0.00,,,-99.99,,2013-03-28 11:42:00,
2013-03-28 05:52:00,34.0,33.0,-100.00,ENE,73,1.0,2.0,96,0.00,,,-99.99,,2013-03-28 11:52:00,
2013-03-28 06:02:00,34.0,33.0,-100.00,ENE,73,1.0,2.0,96,0.00,,,-99.99,,2013-03-28 12:02:00,
2013-03-28 06:12:00,32.0,32.0,-100.00,SSE,151,2.0,2.0,97,0.00,,,-99.99,,2013-03-28 12:12:00,
2013-03-28 06:22:00,34.0,34.0,-100.00,ESE,119,2.0,2.0,97,0.00,,,-99.99,,2013-03-28 12:22:00,
2013-03-28 06:32:00,34.0,34.0,-100.00,ESE,119,2.0,2.0,97,0.00,,,-99.99,,2013-03-28 12:32:00,
2013-03-28 06:42:00,33.0,32.0,-100.00,ENE,59,1.0,1.0,97,0.00,,,-99.99,,2013-03-28 12:42:00,
2013-03-28 06:52:00,34.0,33.0,-100.00,ENE,75,2.0,2.0,97,0.00,,,-99.99,,2013-03-28 12:52:00,
2013-03-28 07:02:00,34.0,33.0,-100.00,ENE,75,2.0,2.0,97,0.00,,,-99.99,,2013-03-28 13:02:00,
2013-03-28 07:11:00,32.0,31.0,-100.00,SE,136,3.0,4.0,97,0.00,,,-99.99,,2013-03-28 13:11:00,
2013-03-28 07:22:00,31.0,30.0,-100.00,ESE,120,6.0,8.0,98,0.00,,,-99.99,,2013-03-28 13:22:00,
2013-03-28 07:32:00,31.0,30.0,-100.00,ESE,120,6.0,8.0,98,0.00,,,-99.99,,2013-03-28 13:32:00,
2013-03-28 07:41:00,30.0,29.0,-100.00,SE,127,3.0,5.0,97,0.00,,,-99.99,,2013-03-28 13:41:00,
2013-03-28 07:52:00,30.0,29.0,-100.00,SE,124,4.0,6.0,97,0.00,,,-99.99,,2013-03-28 13:52:00,
2013-03-28 08:01:00,30.0,29.0,-100.00,SE,124,4.0,6.0,97,0.00,,,-99.99,,2013-03-28 14:01:00,
2013-03-28 08:12:00,31.0,30.0,-100.00,SE,137,1.0,3.0,97,0.00,,,-99.99,,2013-03-28 14:12:00,
2013-03-28 08:22:00,32.0,31.0,-100.00,NNW,346,1.0,3.0,95,0.00,,,-99.99,,2013-03-28 14:22:00,
2013-03-28 08:32:00,32.0,31.0,-100.00,NNW,346,1.0,3.0,95,0.00,,,-99.99,,2013-03-28 14:32:00,
2013-03-28 08:42:00,33.0,32.0,-100.00,WNW,284,1.0,2.0,95,0.00,,,-99.99,,2013-03-28 14:42:00,
2013-03-28 08:52:00,34.0,33.0,-100.00,NW,311,2.0,4.0,94,0.00,,,-99.99,,2013-03-28 14:52:00,
2013-03-28 09:01:00,34.0,33.0,-100.00,NW,311,2.0,4.0,94,0.00,,,-99.99,,2013-03-28 15:01:00,
2013-03-28 09:11:00,36.0,34.0,-100.00,NNW,328,2.0,3.0,92,0.00,,,-99.99,,2013-03-28 15:11:00,
2013-03-28 09:21:00,38.0,36.0,-100.00,NNW,330,3.0,5.0,91,0.00,,,-99.99,,2013-03-28 15:21:00,
2013-03-28 09:32:00,38.0,36.0,-100.00,NNW,330,3.0,5.0,91,0.00,,,-99.99,,2013-03-28 15:32:00,
2013-03-28 09:43:00,39.0,36.0,-100.00,NNW,343,4.0,6.0,90,0.00,,,-99.99,,2013-03-28 15:43:00,
2013-03-28 09:53:00,39.0,36.0,-100.00,North,7,6.0,8.0,87,0.00,,,-99.99,,2013-03-28 15:53:00,
2013-03-28 10:02:00,39.0,36.0,-100.00,North,7,6.0,8.0,87,0.00,,,-99.99,,2013-03-28 16:02:00,
2013-03-28 10:12:00,41.0,36.0,-100.00,NNW,339,4.0,6.0,85,0.00,,,-99.99,,2013-03-28 16:12:00,
2013-03-28 10:22:00,42.0,37.0,-100.00,NNW,330,3.0,4.0,82,0.00,,,-99.99,,2013-03-28 16:22:00,
2013-03-28 10:32:00,42.0,37.0,-100.00,NNW,330,3.0,4.0,82,0.00,,,-99.99,,2013-03-28 16:32:00,
2013-03-28 10:42:00,43.0,38.0,-100.00,North,350,3.0,5.0,80,0.00,,,-99.99,,2013-03-28 16:42:00,
2013-03-28 10:52:00,45.0,38.0,-100.00,NNE,20,2.0,4.0,77,0.00,,,-99.99,,2013-03-28 16:52:00,
2013-03-28 11:02:00,45.0,38.0,-100.00,NNE,20,2.0,4.0,77,0.00,,,-99.99,,2013-03-28 17:02:00,
2013-03-28 11:12:00,47.0,39.0,-100.00,North,6,2.0,4.0,75,0.00,,,-99.99,,2013-03-28 17:12:00,
2013-03-28 11:22:00,47.0,38.0,-100.00,NNE,30,3.0,5.0,70,0.00,,,-99.99,,2013-03-28 17:22:00,
2013-03-28 11:32:00,47.0,38.0,-100.00,NNE,30,3.0,5.0,70,0.00,,,-99.99,,2013-03-28 17:32:00,
2013-03-28 11:42:00,49.0,38.0,-100.00,ENE,68,3.0,7.0,65,0.00,,,-99.99,,2013-03-28 17:42:00,
2013-03-28 11:52:00,50.0,38.0,-100.00,NE,37,4.0,5.0,62,0.00,,,-99.99,,2013-03-28 17:52:00,
2013-03-28 12:02:00,50.0,38.0,-100.00,NE,37,4.0,5.0,62,0.00,,,-99.99,,2013-03-28 18:02:00,
2013-03-28 12:12:00,52.0,37.0,-100.00,NNE,14,4.0,6.0,56,0.00,,,-99.99,,2013-03-28 18:12:00,
2013-03-28 12:22:00,53.0,39.0,-100.00,NNE,20,5.0,7.0,58,0.00,,,-99.99,,2013-03-28 18:22:00,
2013-03-28 12:31:00,53.0,39.0,-100.00,NNE,20,5.0,7.0,58,0.00,,,-99.99,,2013-03-28 18:31:00,
2013-03-28 12:42:00,55.0,39.0,-100.00,North,8,5.0,10.0,56,0.00,,,-99.99,,2013-03-28 18:42:00,
2013-03-28 12:52:00,55.0,38.0,-100.00,NE,45,5.0,9.0,52,0.00,,,-99.99,,2013-03-28 18:52:00,
2013-03-28 13:01:00,55.0,38.0,-100.00,NE,45,5.0,9.0,52,0.00,,,-99.99,,2013-03-28 19:01:00,
2013-03-28 13:12:00,57.0,39.0,-100.00,NE,35,5.0,8.0,51,0.00,,,-99.99,,2013-03-28 19:12:00,
2013-03-28 13:22:00,59.0,37.0,-100.00,North,11,2.0,5.0,44,0.00,,,-99.99,,2013-03-28 19:22:00,
2013-03-28 13:32:00,59.0,37.0,-100.00,North,11,2.0,5.0,44,0.00,,,-99.99,,2013-03-28 19:32:00,
2013-03-28 13:42:00,60.0,37.0,-100.00,North,356,3.0,6.0,42,0.00,,,-99.99,,2013-03-28 19:42:00,
2013-03-28 13:52:00,61.0,37.0,-100.00,NE,42,3.0,6.0,40,0.00,,,-99.99,,2013-03-28 19:52:00,
2013-03-28 14:02:00,61.0,37.0,-100.00,NE,42,3.0,6.0,40,0.00,,,-99.99,,2013-03-28 20:02:00,
2013-03-28 14:12:00,61.0,34.0,-100.00,North,6,6.0,9.0,36,0.00,,,-99.99,,2013-03-28 20:12:00,
2013-03-28 14:22:00,62.0,35.0,-100.00,NNW,332,4.0,6.0,36,0.00,,,-99.99,,2013-03-28 20:22:00,
2013-03-28 14:32:00,62.0,35.0,-100.00,NNW,332,4.0,6.0,36,0.00,,,-99.99,,2013-03-28 20:32:00,
2013-03-28 14:42:00,62.0,35.0,-100.00,NNW,332,4.0,6.0,36,0.00,,,-99.99,,2013-03-28 20:42:00,
2013-03-28 14:53:00,62.0,35.0,-100.00,NNW,343,8.0,11.0,36,0.00,,,-99.99,,2013-03-28 20:53:00,
2013-03-28 15:02:00,62.0,35.0,-100.00,NNW,343,8.0,11.0,36,0.00,,,-99.99,,2013-03-28 21:02:00,
2013-03-28 15:12:00,63.0,34.0,-100.00,NNE,23,6.0,10.0,35,0.00,,,-99.99,,2013-03-28 21:12:00,
2013-03-28 15:22:00,63.0,34.0,-100.00,North,357,7.0,10.0,34,0.00,,,-99.99,,2013-03-28 21:22:00,
2013-03-28 15:32:00,63.0,34.0,-100.00,North,357,7.0,10.0,34,0.00,,,-99.99,,2013-03-28 21:32:00,
2013-03-28 15:42:00,63.0,33.0,-100.00,NNW,346,11.0,15.0,33,0.00,,,-99.99,,2013-03-28 21:42:00,
2013-03-28 15:53:00,63.0,34.0,-100.00,NNW,335,10.0,17.0,34,0.00,,,-99.99,,2013-03-28 21:53:00,
2013-03-28 16:02:00,63.0,34.0,-100.00,NNW,335,10.0,17.0,34,0.00,,,-99.99,,2013-03-28 22:02:00,
2013-03-28 16:12:00,63.0,34.0,-100.00,NNW,335,7.0,11.0,34,0.00,,,-99.99,,2013-03-28 22:12:00,
2013-03-28 16:22:00,63.0,33.0,-100.00,NW,305,9.0,11.0,32,0.00,,,-99.99,,2013-03-28 22:22:00,
2013-03-28 16:32:00,63.0,33.0,-100.00,NW,305,9.0,11.0,32,0.00,,,-99.99,,2013-03-28 22:32:00,
2013-03-28 16:42:00,63.0,33.0,-100.00,NNW,340,9.0,12.0,32,0.00,,,-99.99,,2013-03-28 22:42:00,
2013-03-28 16:52:00,64.0,33.0,-100.00,NW,306,5.0,7.0,30,0.00,,,-99.99,,2013-03-28 22:52:00,
2013-03-28 17:02:00,64.0,33.0,-100.00,NW,306,5.0,7.0,30,0.00,,,-99.99,,2013-03-28 23:02:00,
2013-03-28 17:12:00,64.0,31.0,-100.00,WNW,288,7.0,10.0,29,0.00,,,-99.99,,2013-03-28 23:12:00,
2013-03-28 17:21:00,64.0,31.0,-100.00,WSW,256,8.0,11.0,29,0.00,,,-99.99,,2013-03-28 23:21:00,
2013-03-28 17:32:00,64.0,31.0,-100.00,WSW,256,8.0,11.0,29,0.00,,,-99.99,,2013-03-28 23:32:00,
2013-03-28 17:42:00,64.0,31.0,-100.00,West,264,7.0,10.0,29,0.00,,,-99.99,,2013-03-28 23:42:00,
2013-03-28 17:52:00,63.0,31.0,-100.00,West,275,9.0,10.0,29,0.00,,,-99.99,,2013-03-28 23:52:00,
2013-03-28 18:02:00,63.0,31.0,-100.00,West,275,9.0,10.0,29,0.00,,,-99.99,,2013-03-29 00:02:00,
2013-03-28 18:11:00,63.0,32.0,-100.00,West,265,6.0,9.0,30,0.00,,,-99.99,,2013-03-29 00:11:00,
2013-03-28 18:22:00,63.0,36.0,-100.00,SSE,167,9.0,11.0,37,0.00,,,-99.99,,2013-03-29 00:22:00,
2013-03-28 18:32:00,63.0,36.0,-100.00,SSE,167,9.0,11.0,37,0.00,,,-99.99,,2013-03-29 00:32:00,
2013-03-28 18:42:00,62.0,36.0,-100.00,SSE,168,10.0,13.0,37,0.00,,,-99.99,,2013-03-29 00:42:00,
2013-03-28 18:52:00,61.0,38.0,-100.00,SSE,162,13.0,15.0,42,0.00,,,-99.99,,2013-03-29 00:52:00,
2013-03-28 19:02:00,61.0,38.0,-100.00,SSE,162,13.0,15.0,42,0.00,,,-99.99,,2013-03-29 01:02:00,
2013-03-28 19:12:00,60.0,38.0,-100.00,SSE,161,15.0,19.0,44,0.00,,,-99.99,,2013-03-29 01:12:00,
2013-03-28 19:22:00,59.0,37.0,-100.00,SSE,151,20.0,26.0,43,0.00,,,-99.99,,2013-03-29 01:22:00,
2013-03-28 19:31:00,59.0,37.0,-100.00,SSE,151,20.0,26.0,43,0.00,,,-99.99,,2013-03-29 01:31:00,
2013-03-28 19:42:00,57.0,38.0,-100.00,SSE,148,19.0,25.0,48,0.00,,,-99.99,,2013-03-29 01:42:00,
2013-03-28 19:52:00,57.0,37.0,-100.00,SE,137,16.0,20.0,46,0.00,,,-99.99,,2013-03-29 01:52:00,
2013-03-28 20:02:00,57.0,37.0,-100.00,SE,137,16.0,20.0,46,0.00,,,-99.99,,2013-03-29 02:02:00,
2013-03-28 20:11:00,56.0,37.0,-100.00,SE,141,7.0,9.0,49,0.00,,,-99.99,,2013-03-29 02:11:00,
2013-03-28 20:21:00,56.0,35.0,-100.00,SE,144,8.0,11.0,45,0.00,,,-99.99,,2013-03-29 02:21:00,
2013-03-28 20:32:00,56.0,35.0,-100.00,SE,144,8.0,11.0,45,0.00,,,-99.99,,2013-03-29 02:32:00,
2013-03-28 20:42:00,54.0,38.0,-100.00,SSE,155,10.0,12.0,54,0.00,,,-99.99,,2013-03-29 02:42:00,
2013-03-28 20:52:00,53.0,38.0,-100.00,SSE,155,10.0,12.0,58,0.00,,,-99.99,,2013-03-29 02:52:00,
2013-03-28 21:02:00,53.0,38.0,-100.00,SSE,155,10.0,12.0,58,0.00,,,-99.99,,2013-03-29 03:02:00,
2013-03-28 21:12:00,53.0,38.0,-100.00,SSE,152,11.0,14.0,57,0.00,,,-99.99,,2013-03-29 03:12:00,
2013-03-28 21:21:00,52.0,38.0,-100.00,SE,145,11.0,12.0,60,0.00,,,-99.99,,2013-03-29 03:21:00,
2013-03-28 21:32:00,52.0,38.0,-100.00,SE,145,11.0,12.0,60,0.00,,,-99.99,,2013-03-29 03:32:00,
2013-03-28 21:42:00,52.0,38.0,-100.00,SSE,167,9.0,12.0,58,0.00,,,-99.99,,2013-03-29 03:42:00,
2013-03-28 21:53:00,51.0,38.0,-100.00,South,182,5.0,6.0,64,0.00,,,-99.99,,2013-03-29 03:53:00,
2013-03-28 22:02:00,51.0,38.0,-100.00,South,182,5.0,6.0,64,0.00,,,-99.99,,2013-03-29 04:02:00,
2013-03-28 22:12:00,51.0,39.0,-100.00,SSW,196,4.0,5.0,62,0.00,,,-99.99,,2013-03-29 04:12:00,
2013-03-28 22:22:00,50.0,39.0,-100.00,SSE,147,7.0,10.0,65,0.00,,,-99.99,,2013-03-29 04:22:00,
2013-03-28 22:32:00,50.0,39.0,-100.00,SSE,147,7.0,10.0,65,0.00,,,-99.99,,2013-03-29 04:32:00,
2013-03-28 22:42:00,50.0,39.0,-100.00,SSE,151,6.0,8.0,66,0.00,,,-99.99,,2013-03-29 04:42:00,
2013-03-28 22:52:00,49.0,39.0,-100.00,SSE,151,6.0,9.0,67,0.00,,,-99.99,,2013-03-29 04:52:00,
2013-03-28 23:02:00,49.0,39.0,-100.00,SSE,151,6.0,9.0,67,0.00,,,-99.99,,2013-03-29 05:02:00,
2013-03-28 23:12:00,49.0,38.0,-100.00,SSE,155,8.0,9.0,66,0.00,,,-99.99,,2013-03-29 05:12:00,
2013-03-28 23:22:00,49.0,39.0,-100.00,SE,138,5.0,8.0,68,0.00,,,-99.99,,2013-03-29 05:22:00,
2013-03-28 23:32:00,49.0,39.0,-100.00,SE,138,5.0,8.0,68,0.00,,,-99.99,,2013-03-29 05:32:00,
2013-03-28 23:42:00,48.0,39.0,-100.00,SE,144,7.0,8.0,70,0.00,,,-99.99,,2013-03-29 05:42:00,
2013-03-28 23:52:00,48.0,39.0,-100.00,SE,140,7.0,7.0,72,0.00,,,-99.99,,2013-03-29 05:52:00,